Content
SEND FEEDBACK

Daily
Averages
Monthly
Summary
Mexico

CANCUN, QUINTANA ROO


Home > North America > Mexico > Quintana Roo
Elevation: 9 meters     Latitude: 21 09N     Longitude: 086 49W

WEATHER
 
SELECT A DAY
Number of Records: 163,979;   Date Range: 1/1/95 - 9/21/14
 
SHARE

PRINT THIS DATA

[ ← Previous Day ]
WEATHER ALMANAC - 30 JULY, 2014
[ Next Day → ]
[ °F ]   °C
Weather ElementAverageHighLow
Temperature27.6 °C33 °C (12:41 pm)22 °C (4:47 am)
Dewpoint23.9 °C26 °C (8:44 am)21 °C (6:45 am)
Humidity81.6 %100 % (1:12 am)55 % (12:41 pm)
Barometer1016.3 hPa1017.6 hPa (8:44 am)1014.6 hPa (6:40 pm)
Wind Speed5.5 km/h18.5 km/h (4:40 pm)
Weather ElementAverage
Visibility10.5 km
Wind DirectionNE (44.3 °)

Weather ElementTotal
Precipitation---
Cooling Degree Days9.2 (Base 18.3)
Growing Degree Days17.5 (Base 10)
Averaged from 23 records on 30 July, 2014
WEATHER CONDITIONS BREAKOUT
WIND DIRECTION BREAKOUT
WEATHER BY HOUR - 30 JULY, 2014
[ °F ]   °C
Local TimeTemperatureDewpointHumidityBarometerVisibilityWind DirectionWind SpeedGust SpeedPrecipitationEventsConditions
1:12 AM25 °C25 °C100 %1017.3 hPa4.8 kmCalmSmoke
2:43 AM23 °C23 °C100 %1016.6 hPa6.4 kmCalmPartly Cloudy
3:48 AM23 °C22 °C94 %1015.6 hPa8 kmCalmClear
4:47 AM22 °C22 °C100 %1015.9 hPa8 kmCalmClear
5:46 AM22 °C22 °C100 %1016.3 hPa9.7 kmCalmPartly Cloudy
6:45 AM22 °C21 °C94 %1016.6 hPa11.3 kmCalmPartly Cloudy
7:42 AM24 °C24 °C100 %1017.3 hPa11.3 kmNW (320°)3.7 km/hClear
8:44 AM29 °C26 °C84 %1017.6 hPa11.3 kmCalmClear
9:41 AM31 °C25 °C70 %1016.9 hPa11.3 kmCalmScattered Clouds
10:48 AM31 °C25 °C70 %1017.6 hPa11.3 kmESE (120°)9.3 km/hMostly Cloudy
11:42 AM32 °C24 °C62 %1017.3 hPa11.3 kmENE (60°)5.6 km/hScattered Clouds
12:41 PM33 °C23 °C55 %1015.9 hPa11.3 kmEast (100°)16.7 km/hScattered Clouds
1:41 PM32 °C24 °C62 %1016.6 hPa11.3 kmENE (60°)16.7 km/hScattered Clouds
2:41 PM33 °C24 °C59 %1015.6 hPa11.3 kmENE (60°)14.8 km/hScattered Clouds
3:43 PM32 °C24 °C62 %1014.9 hPa11.3 kmEast (100°)13 km/hScattered Clouds
4:40 PM31 °C24 °C66 %1015.2 hPa11.3 kmNE (40°)18.5 km/hScattered Clouds
5:42 PM31 °C25 °C70 %1014.9 hPa11.3 kmENE (60°)13 km/hScattered Clouds
6:40 PM29 °C25 °C79 %1014.6 hPa11.3 kmNE (50°)7.4 km/hScattered Clouds
7:41 PM28 °C25 °C84 %1015.9 hPa11.3 kmNE (50°)5.6 km/hScattered Clouds
8:44 PM27 °C25 °C89 %1016.6 hPa11.3 kmCalmScattered Clouds
9:42 PM26 °C24 °C89 %1015.6 hPa11.3 kmCalmScattered Clouds
10:43 PM25 °C24 °C94 %1016.9 hPa11.3 kmCalmScattered Clouds
11:44 PM24 °C23 °C94 %1016.9 hPa11.3 kmCalmScattered Clouds
Hourly data recorded from MMUN, located 0 kilometers away from Cancun, Quintana Roo







STORIES FROM OUR PARTNERS